RH
6 6 6 5 5 5 5 6 6 6 7 8 10 11 13 14 16 18 18 16 14 14 15 16 16 17 17 17 16 15 14 11 10 10 14 14 12 12 9 9 5 6 7 7 31 48 49 47 40 37 32 32 31 30 33 30 28 28 35 37 23 18 18 17 18 16 16 15 14 15 15 16 18 20 22 23 24 25 27 29 31 32 35 38 45 55 61 67
6 6 6 6 6 6 5 6 5 6 5 6 7 7 9 10 13 15 17 18 16 15 14 15 16 16 16 16 16 15 14 11 9 10 15 17 13 11 9 8 6 6 5 14 39 46 41 37 34 32 26 28 26 23 27 26 27 27 35 38 24 16 15 15 15 14 16 15 16 16 15 16 16 19 20 20 22 23 25 28 30 31 36 42 49 58 62 66
6 6 6 6 6 6 6 6 5 6 5 5 6 5 6 7 9 11 13 16 17 17 14 14 15 15 16 15 16 16 13 13 13 14 16 16 12 11 10 8 7 6 4 20 40 38 32 30 28 28 23 22 21 21 23 23 26 25 37 42 23 14 15 14 15 15 15 16 17 16 16 16 16 18 18 19 20 20 22 25 28 32 39 42 49 58 62 65
6 6 6 6 6 6 5 6 6 6 6 6 6 5 6 5 6 7 8 11 14 17 16 16 14 14 15 15 16 14 14 15 15 17 14 12 10 10 11 8 8 6 6 25 37 31 27 25 25 24 19 18 16 18 19 21 23 26 48 48 19 12 15 13 15 15 16 16 17 18 17 16 16 17 18 18 19 18 20 23 26 33 39 42 48 55 60 62
7 7 7 7 7 7 6 7 6 6 6 6 6 6 6 6 6 5 6 6 8 12 14 16 16 15 14 14 16 14 18 17 12 17 13 10 10 10 10 8 10 5 9 28 32 26 24 22 25 22 17 15 13 15 15 17 21 23 36 31 14 14 15 12 14 14 15 15 16 17 17 17 16 16 18 18 18 17 18 21 25 32 38 42 47 52 57 60
7 7 7 7 8 7 7 8 7 8 7 7 7 6 6 6 6 6 6 5 6 7 9 12 14 16 15 16 15 13 20 15 10 18 15 10 9 10 11 10 10 4 15 32 25 21 21 20 24 20 15 13 11 12 11 13 17 18 18 16 15 15 14 13 14 14 15 14 15 16 17 18 15 15 17 17 17 16 17 20 23 31 37 42 46 50 54 57
6 7 7 7 7 7 7 7 7 8 8 8 8 8 8 7 7 6 6 6 6 5 5 7 8 12 13 15 15 16 21 14 12 18 14 11 11 12 12 13 11 7 25 35 21 19 19 18 21 17 13 12 11 9 9 10 12 15 14 14 15 14 15 14 13 14 15 15 15 16 17 17 16 16 16 16 17 16 18 19 23 31 37 40 44 48 51 53
6 7 6 6 6 6 6 6 7 7 7 8 8 9 8 8 8 7 7 6 6 6 5 6 5 7 9 10 15 20 18 13 16 18 12 11 14 14 14 16 10 10 31 34 19 18 16 17 18 15 12 10 11 9 8 8 8 12 13 12 14 14 15 14 13 14 14 15 16 16 15 15 16 16 15 16 16 17 19 19 23 31 36 39 43 46 48 51
7 7 7 7 6 6 6 6 6 6 7 7 7 8 8 9 8 7 8 7 7 6 5 6 5 5 5 6 14 17 13 10 16 17 14 17 19 15 16 21 14 16 31 28 18 17 14 15 15 14 12 9 10 8 7 8 8 10 11 12 13 13 14 14 13 13 13 15 16 16 16 16 16 15 15 16 16 18 19 19 24 30 34 36 40 44 47 51
7 7 7 7 6 7 6 6 6 6 6 6 7 7 8 8 8 8 8 7 8 7 7 6 6 6 4 8 16 14 12 13 14 17 19 24 26 18 19 26 23 23 28 21 15 14 11 12 13 13 12 10 9 7 7 7 8 9 11 12 12 13 13 13 13 12 13 14 16 17 16 17 16 16 16 15 17 19 20 20 24 28 31 34 38 41 46 50
6 6 7 6 6 6 6 6 6 6 6 6 6 6 7 8 8 9 8 8 8 6 7 5 6 6 4 14 21 12 11 13 13 18 20 23 27 25 24 26 26 26 23 17 12 10 10 10 10 12 11 10 8 7 7 7 7 9 10 11 12 12 12 12 12 12 12 13 15 17 16 17 17 16 15 16 17 19 21 21 23 26 29 33 37 40 46 48
5 5 6 6 6 6 6 6 6 6 6 6 6 6 6 7 7 8 8 8 7 8 8 6 7 5 6 21 23 13 12 13 13 17 20 21 21 22 22 21 23 24 21 17 12 9 9 9 8 9 10 9 8 7 7 7 8 8 9 10 10 11 11 11 10 11 11 12 15 16 19 19 18 17 14 16 17 18 21 21 24 26 27 32 36 41 47 48
4 4 5 5 5 5 5 5 6 6 6 6 6 6 6 6 7 7 8 8 7 8 6 6 7 4 15 26 18 13 15 13 13 15 19 21 18 17 18 17 18 20 21 18 13 10 9 8 8 8 8 8 7 7 7 7 8 8 8 9 9 10 10 10 9 10 10 12 14 17 23 23 19 18 15 16 18 18 20 21 24 25 27 32 34 40 47 49
4 4 4 4 4 4 4 5 5 6 5 6 6 6 6 5 6 6 7 8 7 8 7 8 8 12 29 27 11 13 16 14 16 16 17 17 15 15 15 17 17 17 19 19 15 12 10 9 8 7 8 7 7 7 7 7 7 8 8 8 10 11 11 9 8 9 10 13 15 17 25 23 18 18 16 17 18 18 20 21 22 24 26 30 32 38 46 49
4 4 4 4 4 4 4 4 4 5 5 6 6 6 6 6 6 6 7 6 7 8 5 8 11 21 36 25 12 16 15 16 18 16 17 16 15 15 15 16 17 16 18 19 17 13 11 10 9 7 7 7 7 7 7 8 8 8 10 10 10 11 11 8 8 10 11 15 15 16 23 20 15 16 16 17 18 17 19 20 21 23 24 28 31 35 42 48
4 4 4 3 3 3 4 4 4 5 5 5 6 6 5 5 5 5 6 6 8 8 8 24 35 32 28 18 17 19 14 17 18 16 16 15 16 15 15 16 16 17 17 17 16 14 12 10 8 7 7 7 8 7 7 9 9 8 10 11 10 10 11 10 9 9 11 15 16 16 20 17 13 14 16 18 18 16 18 20 21 21 22 26 30 32 37 44
5 5 3 3 4 3 3 4 4 4 4 5 5 6 6 6 6 6 7 7 9 11 13 33 52 43 26 15 16 15 13 17 17 17 17 15 15 14 15 17 15 16 15 14 14 12 11 10 9 8 7 7 6 6 9 12 11 10 10 10 9 9 11 12 11 10 11 15 16 16 18 17 14 13 16 19 18 16 16 18 20 21 22 25 28 30 34 41
6 5 4 4 3 3 4 3 3 4 4 5 5 7 5 4 5 6 9 11 18 29 28 33 43 35 23 19 17 11 11 16 15 16 16 13 13 13 15 16 14 14 12 13 12 11 11 9 9 8 6 6 6 7 11 12 11 10 10 10 10 10 10 12 13 11 11 15 17 18 18 18 16 15 16 18 18 17 16 17 20 21 22 25 28 28 31 38
6 6 4 4 4 4 4 3 4 4 3 5 5 5 6 11 19 20 27 36 38 37 32 34 36 21 12 16 17 12 12 15 14 13 11 10 11 12 14 15 14 12 10 10 10 9 10 9 8 7 6 6 7 8 9 10 9 9 9 9 10 10 9 10 12 11 11 15 17 18 18 17 17 18 19 20 20 19 18 17 18 20 22 25 28 28 29 34
7 6 5 5 4 4 3 4 4 3 4 6 4 8 15 23 29 29 38 50 45 31 21 23 25 16 11 12 11 12 13 14 13 12 9 9 11 12 13 14 13 11 9 8 8 8 8 8 8 7 6 6 7 7 7 8 8 8 9 9 10 10 9 9 10 11 11 14 17 17 17 17 17 18 20 22 21 20 20 19 19 19 21 24 27 28 28 32
7 6 6 5 5 4 4 4 3 4 8 6 5 14 21 18 16 18 22 26 25 23 18 14 14 13 12 10 8 9 10 11 11 10 9 9 12 12 12 13 12 11 9 6 7 7 7 8 7 6 5 5 6 7 7 8 8 8 9 9 9 9 9 8 9 11 11 14 17 16 17 17 16 17 18 20 21 21 20 20 20 20 21 23 26 28 29 32
9 8 7 7 7 4 4 3 3 7 9 7 11 18 21 17 15 17 16 12 10 11 11 10 9 9 9 8 8 8 7 8 8 8 9 10 12 12 11 11 11 11 8 6 6 7 7 8 6 5 5 4 6 7 7 8 7 8 9 9 10 9 8 8 8 10 11 14 17 17 17 17 16 15 16 18 21 22 21 21 22 22 22 23 25 28 29 31
11 9 9 9 7 5 6 4 5 9 6 10 20 23 21 20 18 17 17 14 11 9 8 9 8 7 8 7 7 7 7 6 6 7 8 10 12 11 10 10 10 10 8 7 6 7 8 7 5 4 4 4 6 6 7 8 7 8 9 9 11 9 9 9 9 10 12 14 16 17 17 17 16 16 17 18 21 23 23 22 22 23 24 24 25 27 29 30
10 10 11 10 8 8 4 3 9 13 10 13 23 25 21 19 17 18 18 14 11 10 8 8 8 7 6 7 7 7 7 6 6 6 7 10 11 10 10 9 9 9 8 7 6 6 7 6 4 4 4 4 5 6 7 8 8 8 8 9 10 9 8 9 10 13 14 14 15 17 20 20 19 19 17 17 19 21 22 23 22 23 24 26 26 27 29 30
10 10 11 10 10 8 5 14 23 16 11 17 24 25 22 19 16 16 20 18 11 9 9 8 8 7 7 9 10 8 7 7 6 6 7 9 10 9 9 9 9 9 8 7 6 6 6 4 4 4 4 5 5 6 7 7 8 8 8 8 8 9 8 8 10 15 17 18 16 17 25 26 20 20 20 17 18 20 22 23 23 24 24 26 27 27 29 30
11 9 10 10 11 7 7 23 26 10 8 21 25 23 22 20 13 15 24 20 10 8 9 9 7 8 9 10 11 9 9 8 7 8 8 9 10 9 9 9 9 9 7 7 7 6 5 4 5 4 4 5 5 6 6 7 8 9 8 7 8 8 8 8 9 14 19 20 16 16 25 29 22 20 20 18 19 20 21 22 23 24 25 25 27 28 29 30
14 10 10 9 10 10 9 13 12 5 13 25 24 21 21 15 10 19 27 19 10 9 10 10 9 10 10 11 11 10 10 9 9 10 9 10 10 9 9 9 9 9 7 7 8 8 6 5 5 4 4 4 5 6 6 6 8 8 7 7 8 8 8 9 9 12 16 17 17 16 20 28 26 20 17 17 19 19 21 23 23 24 25 25 26 27 29 30
18 14 10 9 9 10 9 8 5 8 19 25 20 17 15 9 11 24 29 22 13 9 10 12 13 13 12 12 11 10 10 10 10 10 9 10 10 8 9 9 8 9 7 8 10 8 6 6 4 3 4 4 4 5 5 6 7 7 6 6 7 8 8 9 9 12 13 16 21 18 17 26 28 21 16 15 17 19 20 21 23 22 23 25 26 28 30 31
22 19 13 11 9 10 14 11 5 8 15 16 12 9 7 9 18 23 23 22 14 6 10 14 13 14 12 12 12 10 10 10 9 10 10 10 10 9 9 8 8 8 7 7 9 8 6 6 4 3 5 4 4 4 4 6 6 6 6 6 6 7 8 9 10 11 13 20 25 19 16 26 30 22 18 17 17 19 18 18 19 20 22 27 30 33 34 33
26 23 17 13 9 14 19 14 12 14 11 7 6 4 8 19 26 23 19 18 11 6 10 13 12 12 11 12 12 10 11 10 9 11 10 10 10 9 8 8 7 8 8 8 7 7 6 5 4 4 5 5 4 4 5 5 6 5 6 6 7 8 8 9 10 11 17 24 24 18 15 22 28 22 17 18 17 16 17 17 17 18 22 27 31 34 32 30
28 25 20 15 11 12 14 18 29 31 15 5 4 7 13 21 22 21 20 14 8 7 9 11 11 9 10 12 10 10 10 8 9 11 10 9 9 8 8 9 9 8 10 10 8 8 7 6 5 4 4 5 4 5 4 4 5 5 6 7 9 10 11 12 13 13 19 24 20 16 14 18 25 22 15 16 15 13 15 17 16 17 21 25 29 31 29 28
27 25 21 18 14 11 11 16 26 27 14 3 6 13 16 18 19 19 16 10 8 9 8 8 9 9 10 10 8 9 9 8 9 10 9 9 9 8 8 11 11 11 12 12 10 9 8 7 5 5 5 5 5 4 4 4 5 5 7 8 11 13 16 19 17 16 18 19 16 13 14 18 21 19 14 14 12 11 13 15 14 14 17 22 25 26 27 27
24 22 22 21 16 13 13 11 12 13 7 5 12 17 15 17 21 17 11 9 9 8 7 7 7 8 9 9 8 8 9 8 8 9 9 9 9 8 8 10 9 10 11 11 11 11 11 8 5 6 6 4 5 4 4 5 5 6 7 9 12 14 19 23 20 18 18 16 13 12 15 19 18 15 13 13 11 10 11 12 12 11 12 16 19 24 26 26
21 20 21 20 17 15 12 13 18 15 9 14 20 16 13 18 18 12 10 9 7 7 7 7 7 8 9 8 8 7 8 8 7 9 10 9 9 9 8 9 7 7 8 9 11 12 13 11 7 7 7 5 5 4 3 4 5 6 6 8 11 11 16 21 18 18 19 16 13 13 17 20 19 16 12 11 10 10 10 11 11 10 10 10 14 22 25 25
19 18 19 23 29 31 28 28 30 25 23 26 22 12 14 17 13 10 10 8 6 7 7 7 7 9 9 8 7 6 6 7 6 8 10 9 10 9 8 9 7 7 8 9 11 10 12 11 6 5 6 5 5 4 3 3 4 5 5 7 10 9 12 16 15 15 16 16 15 15 16 16 15 13 10 10 11 10 10 10 9 10 10 8 11 19 23 23
18 17 21 31 38 43 50 49 37 35 41 32 17 12 13 12 9 8 8 6 7 7 6 7 9 9 9 8 8 6 6 7 6 7 9 9 9 8 8 8 7 7 7 9 10 10 11 11 6 5 6 4 4 4 3 3 4 6 7 8 8 7 10 13 13 14 14 16 17 13 13 13 12 11 10 11 12 10 10 10 9 9 9 9 10 17 25 25
15 21 30 33 33 41 59 58 41 46 53 33 17 15 10 7 8 7 6 6 6 6 7 8 8 9 9 9 8 7 7 7 7 7 9 9 9 8 7 7 6 6 7 7 8 8 10 10 7 6 7 6 5 4 3 3 3 6 8 8 7 7 9 11 14 16 16 18 16 12 12 13 13 12 11 13 12 11 12 10 9 8 8 9 9 13 21 26
21 36 39 33 39 52 60 53 45 54 52 33 25 22 11 7 7 5 5 6 6 8 9 8 7 8 8 8 7 6 7 8 8 8 9 9 9 8 7 7 7 6 6 7 8 7 8 10 9 6 7 7 5 5 5 3 3 5 5 5 6 9 11 12 14 16 17 18 16 13 12 11 12 12 13 15 13 11 13 11 9 8 7 9 10 11 17 24
42 46 36 35 50 53 44 40 45 51 45 34 30 23 15 11 8 6 6 5 5 8 11 10 7 7 6 6 6 5 6 8 8 8 9 9 9 7 7 7 7 6 6 6 7 7 7 10 10 7 6 6 6 6 7 5 4 3 3 4 6 8 10 12 12 13 16 18 18 16 14 12 11 10 11 14 12 10 12 12 9 8 7 7 8 10 14 21
58 43 28 42 56 46 35 35 39 40 37 36 30 20 15 12 9 8 6 5 5 5 9 11 8 8 8 6 6 5 5 6 7 7 8 8 7 7 7 7 7 7 6 6 7 7 8 11 12 8 5 6 7 7 6 5 5 3 3 4 6 7 8 9 9 9 12 17 17 17 17 14 10 8 9 11 11 10 10 11 10 9 8 6 8 9 11 18
61 42 30 42 52 47 41 34 29 29 29 29 26 21 18 13 10 9 7 6 6 4 6 7 7 8 8 7 7 6 6 6 5 7 7 7 7 8 7 7 7 7 7 7 7 7 8 11 12 9 7 7 7 6 5 5 4 4 3 3 5 7 8 10 12 10 10 12 14 16 18 14 9 8 8 8 9 9 9 9 9 8 7 6 8 8 9 18
59 42 31 36 40 39 37 28 22 23 23 23 22 20 19 16 13 10 8 7 6 5 5 5 6 7 7 8 7 7 8 7 6 7 7 6 6 7 8 7 7 6 7 9 8 7 8 9 12 11 8 7 6 5 5 5 4 3 3 3 4 6 7 11 14 12 10 11 11 13 16 13 9 8 8 8 9 9 8 8 8 7 8 7 7 7 10 20
52 41 35 33 31 28 27 25 24 21 19 19 18 17 17 16 15 12 9 9 7 6 6 5 5 5 5 6 6 7 8 8 8 9 8 7 6 6 7 7 7 6 7 9 8 8 9 10 13 14 10 7 5 5 5 4 4 4 3 3 3 4 5 8 10 11 11 11 11 14 16 13 9 9 9 9 9 9 7 8 9 8 8 7 7 7 10 17
55 50 43 35 32 31 27 24 25 22 19 17 15 15 15 13 13 14 12 11 9 8 7 6 5 5 5 5 5 6 7 8 9 9 8 8 6 6 7 7 8 7 7 10 10 9 11 13 14 17 17 13 9 8 7 6 5 4 4 4 3 4 5 5 8 11 12 12 11 14 16 12 9 10 9 8 9 9 8 8 9 8 8 7 6 8 8 12
60 49 40 32 33 37 31 25 24 23 21 20 18 16 15 14 13 13 12 12 11 10 8 7 5 4 4 5 5 6 6 7 9 8 8 8 6 6 6 7 8 7 8 14 14 10 10 14 15 17 20 18 14 13 10 7 6 5 4 4 3 4 5 4 7 11 13 13 14 15 14 11 10 10 10 8 8 9 9 9 7 7 8 6 7 12 13 16
62 46 35 29 28 30 31 29 29 28 26 27 27 21 19 19 17 15 14 14 13 13 11 9 7 6 5 6 6 6 6 6 7 8 8 8 7 6 6 7 6 9 15 18 15 11 11 13 15 17 18 16 14 13 10 7 7 6 5 5 3 4 4 4 7 10 11 13 15 16 14 11 10 10 10 9 8 9 10 10 8 8 8 6 12 25 28 28
69 52 38 34 35 34 33 31 33 38 39 39 38 33 28 27 24 22 20 16 14 13 12 11 10 8 7 6 6 7 7 7 7 8 8 8 7 6 6 5 5 13 22 17 11 13 15 14 15 16 17 14 12 11 8 7 8 6 5 5 4 3 4 5 8 8 9 11 13 15 15 13 11 11 10 10 9 10 11 11 9 8 7 5 12 28 35 36
67 53 42 42 44 40 36 34 35 42 46 44 41 37 36 35 30 27 25 21 17 14 13 14 13 11 10 8 8 8 8 8 8 8 8 8 7 6 6 4 5 14 18 11 9 13 17 17 14 12 14 14 11 10 8 8 9 7 5 5 5 4 4 5 6 6 8 11 11 12 14 14 12 10 9 9 9 9 9 9 9 8 8 7 8 15 23 29
65 54 46 44 44 41 39 38 36 39 41 40 38 34 35 36 34 30 26 26 27 21 16 16 13 11 12 11 10 12 11 10 10 9 9 8 8 8 8 6 5 9 11 10 11 13 16 19 16 13 14 14 12 11 9 8 9 8 7 6 6 6 4 4 5 4 6 9 8 8 11 12 10 9 8 7 7 8 7 8 9 7 8 8 7 7 9 14
70 60 53 50 45 42 40 36 33 33 31 31 32 29 27 30 32 29 26 31 39 35 28 28 27 24 23 21 17 14 12 10 10 10 10 9 8 8 10 9 8 9 10 11 13 12 16 22 20 17 17 15 13 13 11 10 9 9 9 8 7 7 6 5 5 4 5 7 6 7 10 11 9 8 8 7 7 8 8 8 9 8 8 8 7 7 7 7
73 64 60 57 49 44 43 38 32 32 31 29 29 25 23 25 26 28 31 34 38 37 36 38 40 36 33 30 25 17 14 15 16 14 12 11 11 10 9 8 9 9 11 11 12 13 17 21 19 20 24 21 17 15 13 12 11 10 10 9 8 8 7 7 7 5 6 7 6 7 9 10 8 6 8 9 9 9 9 9 9 8 9 8 8 8 7 7
79 73 66 63 57 48 43 38 35 35 34 30 27 24 23 23 23 29 37 37 32 32 35 39 40 39 37 37 35 29 25 26 25 23 21 19 19 17 13 11 10 10 11 10 11 14 18 20 20 23 28 26 19 17 15 14 18 19 14 10 9 8 7 7 6 6 6 5 6 7 7 7 6 6 7 8 9 11 11 10 9 9 9 9 9 9 7 7
Wind_Speed
15 16 16 16 16 17 17 17 17 18 18 18 18 17 17 17 16 16 15 14 15 15 16 16 15 15 16 17 18 20 22 22 21 20 18 14 11 12 14 14 12 12 11 9 11 16 17 18 18 16 14 13 12 12 12 8 9 8 3 3 1 1 2 3 4 4 5 8 10 9 7 8 10 8 9 8 10 14 11 10 10 8 10 13 20 24 25 25
15 15 16 16 16 16 16 17 17 18 18 18 18 18 18 18 17 17 17 16 15 15 16 16 17 16 17 19 19 22 24 24 24 22 17 13 10 9 10 12 12 14 14 12 16 19 18 18 17 16 15 13 13 12 11 7 4 4 1 5 2 2 3 3 4 6 5 7 9 9 7 7 9 9 9 9 11 13 11 12 12 11 13 17 24 26 25 26
14 15 15 16 15 16 16 17 17 17 18 18 19 19 19 19 18 18 18 17 17 16 16 16 17 18 18 19 21 22 24 27 25 16 11 8 5 5 6 9 12 15 16 14 17 18 16 16 15 16 15 13 13 10 8 7 5 2 3 5 4 3 1 3 4 5 6 7 10 9 7 7 9 9 8 8 11 12 10 12 13 13 17 20 25 26 25 25
14 15 15 15 15 15 16 16 17 17 18 18 18 19 19 19 19 19 18 18 18 17 17 16 17 18 18 19 20 21 25 26 13 2 6 7 2 7 5 5 9 15 17 14 16 17 15 15 15 16 15 13 12 11 9 8 8 5 5 7 2 4 1 5 4 5 8 7 9 8 7 8 9 8 7 8 9 8 9 13 14 15 19 22 26 27 26 25
15 15 15 16 16 15 16 16 17 17 18 18 19 19 19 19 20 20 19 19 18 18 17 17 17 17 18 19 19 20 22 14 2 7 5 4 9 11 7 5 6 14 18 16 16 16 16 16 15 17 15 12 12 11 11 11 10 7 8 9 1 3 1 5 5 5 7 8 11 9 7 9 8 9 7 8 6 6 10 13 15 17 21 24 25 27 26 25
15 15 15 16 16 16 16 17 17 17 18 18 19 19 19 20 20 20 19 19 19 19 18 17 17 17 18 18 18 19 15 7 1 3 6 11 14 10 6 3 4 14 19 17 17 17 18 18 17 17 15 12 13 11 11 13 12 7 6 7 3 3 1 3 4 6 6 6 10 8 8 10 8 9 9 8 4 4 11 15 15 18 22 24 25 25 26 25
15 15 16 16 16 16 16 17 18 18 18 18 19 20 20 20 20 20 20 19 18 19 18 17 17 17 17 17 18 16 14 15 10 9 11 14 10 5 5 3 4 14 20 18 19 19 19 20 20 19 15 11 13 12 11 12 14 9 6 6 7 6 3 1 2 6 7 5 7 7 9 10 8 9 10 9 5 5 10 15 15 19 22 24 25 25 25 25
15 16 16 16 17 17 16 17 17 18 18 19 19 20 20 21 21 21 20 20 18 18 18 17 17 16 16 15 15 14 16 15 6 5 10 9 5 3 4 3 4 14 19 19 19 19 20 21 22 19 14 12 13 13 12 12 12 11 9 7 7 7 6 5 4 5 7 6 7 8 9 10 8 8 10 10 8 6 9 15 16 19 22 23 24 24 24 24
15 16 16 17 17 17 17 17 17 18 18 18 19 20 21 21 21 21 20 20 19 18 18 17 17 16 16 14 13 13 13 7 2 5 7 5 5 4 2 2 5 13 18 19 19 20 20 20 22 20 15 14 15 14 13 11 8 10 11 9 8 8 8 7 8 6 7 8 9 9 8 9 9 8 9 11 11 9 11 15 17 19 21 23 24 24 24 24
17 17 17 17 17 18 18 18 18 18 18 18 18 19 20 21 22 21 20 20 19 19 18 17 16 16 14 13 12 10 7 5 4 5 5 5 6 5 2 6 8 12 17 18 19 21 21 20 20 20 18 16 16 15 13 11 9 10 10 10 10 9 10 10 9 8 8 9 11 10 8 9 11 7 7 12 12 11 13 15 17 20 21 21 22 23 23 24
18 18 18 18 18 19 18 18 18 18 18 18 18 19 20 20 20 20 20 19 19 19 18 17 16 15 13 10 12 11 6 6 6 5 6 6 8 7 6 9 10 14 16 17 19 21 22 20 18 17 15 15 15 15 15 15 13 9 8 10 11 12 12 11 9 9 9 9 13 11 9 11 12 7 7 15 15 12 15 16 18 19 20 21 21 23 23 23
19 19 19 19 19 20 19 19 19 18 18 18 19 19 19 20 19 20 19 19 19 19 18 17 15 14 11 11 19 17 10 10 10 8 9 9 10 10 10 10 11 14 16 17 19 19 21 21 19 18 15 14 13 12 12 16 17 12 9 10 11 13 12 12 11 11 10 9 13 11 9 11 11 8 9 17 17 14 16 17 18 19 19 21 21 22 22 22
19 19 20 20 20 20 20 20 20 20 19 19 19 19 19 19 18 19 18 18 19 18 18 17 15 12 9 13 18 15 12 13 13 13 12 11 12 13 13 13 13 15 16 17 17 17 19 19 20 21 19 16 14 11 8 12 18 13 11 10 9 11 10 13 13 12 11 10 15 12 7 8 11 11 12 19 18 16 17 17 18 18 19 20 21 22 22 22
18 19 19 20 20 20 21 20 21 21 20 20 20 20 19 18 18 18 17 17 17 18 18 16 13 8 9 16 16 12 12 13 13 15 14 13 13 14 14 15 15 15 16 17 17 16 17 18 20 21 22 20 18 15 9 9 13 11 11 9 8 8 7 13 13 12 11 11 16 14 6 6 12 15 15 19 19 18 18 18 18 18 19 20 21 22 22 23
18 19 19 19 20 20 20 20 20 21 21 21 20 20 20 19 17 17 16 17 17 17 17 14 10 6 11 20 18 13 12 9 11 13 13 12 13 14 15 15 15 14 14 16 16 15 15 17 20 20 19 20 20 16 10 8 10 9 10 9 9 8 6 11 12 11 11 11 16 14 6 5 11 16 19 19 19 19 18 18 19 19 20 20 21 21 21 22
20 19 19 19 20 20 20 20 20 20 20 20 20 20 20 20 18 17 17 16 16 16 12 8 7 5 10 12 7 10 10 8 9 10 11 10 10 11 12 14 14 13 13 14 15 15 15 17 20 19 17 17 16 12 8 9 10 9 10 9 10 10 7 8 11 13 13 11 14 14 7 4 8 16 20 20 20 19 18 18 19 19 20 21 21 21 21 22
22 21 20 20 20 21 20 20 20 20 19 18 19 18 18 19 18 17 17 15 14 12 7 4 2 6 13 9 6 10 10 10 9 11 11 8 8 8 10 14 13 13 13 13 14 14 16 17 16 15 15 14 12 11 10 10 10 9 10 9 11 12 9 8 10 13 14 12 13 14 10 5 7 15 18 19 20 19 17 18 19 19 20 21 21 21 21 22
23 22 22 21 21 22 21 20 20 20 18 17 18 18 17 17 16 17 18 15 10 7 7 8 6 6 11 12 12 12 11 13 11 12 10 8 9 8 10 15 13 13 14 13 15 16 16 17 14 11 12 13 12 12 12 12 12 12 12 9 10 12 12 11 10 12 15 13 13 14 12 7 8 13 16 17 19 18 17 17 19 20 20 21 21 21 22 22
23 23 23 22 22 22 21 21 20 19 19 16 15 16 16 14 14 14 13 10 8 6 6 8 14 8 6 4 10 9 8 12 12 11 8 9 11 11 13 15 14 16 15 12 15 19 16 13 14 12 12 14 16 16 15 16 16 14 13 11 11 11 11 12 12 13 15 14 13 15 13 10 10 12 13 15 17 17 16 16 18 19 20 21 21 22 22 23
23 23 23 23 22 22 22 20 19 19 18 15 13 13 12 10 9 6 4 10 18 17 17 12 17 18 16 8 8 8 10 13 14 12 10 10 12 13 16 16 16 16 14 11 13 18 18 12 13 14 15 19 21 20 19 20 20 17 14 13 13 13 10 12 13 14 15 13 12 14 13 13 13 13 13 14 16 16 16 16 16 18 20 21 22 22 22 23
23 23 23 23 22 22 20 20 19 16 15 14 12 10 10 9 6 6 8 14 22 23 27 25 21 24 24 18 13 11 12 14 16 16 13 12 14 14 17 18 15 13 14 14 13 16 17 13 15 18 19 21 21 21 21 21 22 18 14 12 12 13 11 12 14 16 15 12 11 14 15 15 14 13 14 16 15 15 17 17 17 18 20 21 22 23 23 23
23 23 24 24 23 22 20 19 18 12 11 12 10 7 7 7 5 7 12 16 22 24 27 29 28 28 26 23 19 15 15 15 16 17 14 15 17 15 17 18 14 11 14 16 12 12 14 13 18 20 20 20 20 22 23 23 22 17 13 12 11 11 11 12 13 18 14 9 9 14 14 13 14 14 14 16 15 15 18 17 17 19 19 21 22 23 24 23
23 23 24 24 23 21 19 18 13 9 11 11 9 8 5 5 6 8 11 14 21 24 25 27 28 28 26 24 21 19 19 19 17 18 18 18 20 19 16 15 15 14 14 16 14 12 11 14 19 20 20 21 21 22 24 21 18 16 14 11 10 12 13 9 9 15 14 9 9 12 12 10 12 14 14 16 17 17 18 19 19 19 20 21 22 23 24 25
23 24 24 24 24 20 19 16 9 9 14 10 8 7 5 6 8 11 12 13 15 17 21 25 24 25 25 20 17 21 23 21 19 19 21 23 23 21 17 15 16 15 14 18 19 16 13 14 19 21 21 23 23 22 22 18 14 16 18 14 12 14 16 10 9 12 11 11 11 11 10 8 12 15 14 15 17 18 19 20 20 20 21 21 22 23 25 26
22 23 24 25 24 21 17 10 5 10 12 9 6 5 5 9 10 11 11 9 11 10 13 18 19 19 18 13 13 20 19 19 21 19 21 27 25 18 16 17 14 14 17 20 20 16 15 15 18 21 21 22 23 20 21 17 13 16 19 18 17 15 17 15 12 12 9 11 13 13 9 8 12 15 14 13 15 17 18 18 19 19 20 21 23 24 25 26
21 22 23 24 24 23 15 5 5 11 9 5 3 3 8 11 10 10 6 7 8 4 6 12 14 12 15 15 16 18 13 16 22 19 20 27 27 20 15 14 12 13 17 17 14 10 12 16 17 20 22 23 23 19 21 21 14 13 17 20 21 18 17 17 14 12 9 9 12 14 11 7 9 14 15 14 15 17 17 17 18 20 21 22 23 24 26 27
22 20 22 23 22 23 17 8 10 11 7 4 4 7 10 10 9 8 3 7 7 6 9 9 9 9 13 15 19 16 6 9 18 19 21 24 27 23 16 13 11 12 14 11 10 9 12 18 19 21 23 21 19 17 20 22 15 12 16 21 22 21 20 18 15 11 9 9 11 15 13 9 8 11 15 17 17 17 18 17 16 19 23 24 24 25 27 28
22 19 21 22 19 19 19 15 13 11 7 8 9 10 10 8 8 5 5 6 2 7 9 7 7 8 10 14 22 17 3 9 13 17 23 23 25 24 16 15 14 13 15 12 10 11 14 20 21 20 19 16 17 18 20 21 17 15 18 20 20 21 21 19 15 11 10 10 10 14 15 11 8 9 12 16 18 18 18 18 17 20 25 25 24 26 28 29
23 20 20 22 19 16 17 17 14 11 9 9 9 9 7 8 7 5 6 6 2 4 7 9 9 10 11 13 20 20 8 8 8 12 22 22 24 22 15 16 17 14 17 16 13 11 13 19 21 18 15 15 17 18 20 21 17 15 19 20 18 18 19 19 15 11 11 11 11 14 15 10 8 9 11 13 15 15 15 15 16 19 22 21 22 26 29 30
24 21 19 21 21 17 16 17 15 10 8 8 8 6 7 8 6 7 8 5 4 5 9 11 10 13 16 13 15 18 14 13 8 13 19 20 24 24 17 17 18 13 14 16 17 15 12 17 19 16 15 16 16 17 20 23 20 16 17 18 17 16 15 14 13 11 10 10 14 18 18 14 10 9 11 11 12 13 12 12 13 14 17 21 24 26 28 28
24 22 19 19 20 18 17 14 9 8 9 8 6 6 7 7 6 9 8 2 4 6 12 10 11 15 18 16 12 15 16 14 12 14 15 15 18 20 16 14 14 11 11 13 15 16 15 15 14 15 18 17 17 18 20 22 22 18 15 14 15 13 10 10 11 12 12 11 15 20 22 19 13 9 10 13 17 16 13 12 13 14 19 24 26 27 28 28
25 23 20 17 18 19 18 12 9 15 16 9 6 7 7 7 8 10 7 1 1 7 10 11 14 15 18 18 13 15 15 13 14 15 13 13 13 15 15 12 10 11 11 11 12 14 16 15 13 14 20 21 18 15 16 18 19 17 14 14 14 11 8 10 11 12 13 12 14 18 20 18 14 12 13 15 17 17 15 15 17 18 23 27 27 27 27 28
25 25 22 17 16 18 20 16 14 18 16 7 7 8 7 9 10 11 11 6 2 5 5 10 14 15 17 17 13 14 15 13 15 16 15 15 13 15 19 17 16 13 11 11 12 12 12 16 18 16 16 21 20 14 13 14 15 17 15 13 13 12 10 11 12 12 12 12 15 17 16 14 11 13 17 17 16 15 16 20 21 19 20 25 27 24 21 24
26 25 23 18 15 16 18 16 13 13 10 7 8 9 11 13 10 9 12 13 8 3 3 8 13 16 16 15 12 13 13 12 15 16 15 16 13 13 17 20 22 17 10 11 11 11 12 13 18 18 12 17 22 19 16 14 14 17 17 15 15 13 11 11 11 11 12 12 15 17 14 11 9 11 15 17 18 16 15 19 22 20 19 17 20 21 20 22
27 24 23 18 14 13 13 13 11 7 7 9 10 10 13 13 9 10 11 12 11 9 8 8 10 13 14 13 14 16 14 11 15 17 14 15 14 13 14 17 22 19 12 11 9 11 14 11 14 20 17 17 21 21 20 18 15 14 14 15 16 14 11 11 11 12 13 12 12 13 11 9 10 10 9 11 15 17 17 19 22 23 21 15 13 18 20 22
28 25 21 15 11 10 10 10 8 5 9 11 11 12 14 11 9 9 8 8 12 13 10 10 11 12 12 11 13 18 16 12 14 14 13 15 16 16 16 14 20 22 16 11 8 8 12 10 12 20 21 21 20 20 22 20 13 9 13 16 16 15 15 13 13 13 14 13 11 11 11 11 13 13 11 12 14 15 16 18 21 23 21 14 13 17 22 24
28 25 22 16 12 9 10 9 6 6 12 12 12 13 12 12 13 12 10 9 10 12 12 11 10 12 13 10 12 17 17 13 14 12 11 14 15 17 19 15 19 24 21 15 10 8 9 8 12 19 20 21 21 20 23 23 18 10 12 17 15 16 17 13 11 12 13 13 11 13 16 14 12 10 10 16 18 15 16 18 20 21 18 15 16 18 22 25
25 25 25 16 8 8 10 8 5 7 13 12 15 17 12 12 16 16 16 16 12 10 12 12 9 11 13 11 11 16 17 13 13 12 11 12 11 15 19 16 17 23 25 21 12 8 10 8 11 18 19 19 20 18 18 22 26 20 13 14 14 14 15 12 11 12 13 13 10 15 19 15 12 10 10 16 20 18 19 20 19 18 17 18 19 17 17 21
21 21 19 5 7 7 7 7 6 11 13 11 13 14 12 14 18 20 21 19 15 12 12 13 12 11 13 14 12 15 17 15 13 13 11 9 9 15 19 16 16 20 24 23 14 8 10 8 7 14 17 15 14 14 13 15 22 24 19 14 13 12 13 13 13 11 12 13 11 14 16 12 11 12 12 16 19 19 20 20 18 17 20 19 19 18 18 21
16 15 11 3 6 6 7 7 10 12 11 11 13 12 12 15 19 24 27 23 16 13 12 14 14 12 13 15 15 13 15 16 16 13 11 11 11 13 17 16 16 19 22 23 18 11 9 8 7 10 15 14 11 13 16 15 16 18 18 16 14 11 12 14 15 13 12 12 10 11 12 10 10 12 14 16 15 15 17 18 16 18 22 19 16 19 20 21
15 12 9 5 5 6 7 9 11 11 10 11 14 14 15 15 15 21 28 27 22 17 16 15 15 14 14 14 14 13 12 14 16 13 10 14 14 10 12 15 15 16 18 19 17 13 9 7 8 9 11 13 14 16 19 19 17 16 16 17 16 13 12 14 14 13 14 13 11 10 11 11 9 11 13 14 12 13 15 17 16 18 19 15 14 19 21 21
14 10 8 5 5 10 11 10 10 11 10 12 15 16 17 17 17 18 22 24 23 19 18 17 16 16 15 14 14 13 13 12 12 14 12 13 16 12 12 17 19 17 15 13 15 15 11 7 8 10 10 13 17 19 20 21 22 19 16 18 18 16 13 13 12 13 14 14 14 13 12 11 9 10 9 10 12 15 17 15 12 15 16 14 18 19 20 25
14 15 17 17 16 16 14 10 10 11 11 14 19 22 21 17 16 18 19 19 17 15 16 16 17 18 16 15 15 14 15 12 10 14 13 12 15 13 11 17 21 17 14 12 14 16 12 8 9 10 9 11 15 17 18 21 21 18 16 18 18 18 18 15 11 12 13 15 16 13 13 12 10 10 8 9 12 16 18 17 15 17 20 19 22 18 13 20
18 20 25 23 14 14 14 9 9 11 12 16 20 21 23 20 18 18 17 15 14 13 13 14 16 17 16 16 17 16 15 13 12 15 15 12 13 13 13 14 15 15 13 9 9 13 12 9 10 10 9 11 12 13 15 18 17 14 15 19 19 23 27 21 13 12 14 17 19 14 12 12 11 12 12 11 13 14 16 20 22 23 21 21 23 14 8 11
18 17 21 20 14 16 16 12 11 11 12 17 19 18 20 19 20 22 19 16 17 16 14 15 17 17 16 17 18 18 18 15 12 13 14 14 11 12 15 14 13 16 12 1 4 9 13 10 11 11 11 12 12 11 11 13 13 12 16 22 23 27 31 22 14 14 14 14 18 16 13 12 12 14 17 17 16 14 13 17 20 21 22 24 21 10 10 13
14 10 12 14 13 17 18 17 17 15 12 13 14 16 17 15 16 21 22 20 21 21 17 16 18 18 18 20 19 19 21 20 16 12 12 14 11 10 14 15 16 16 4 7 5 9 9 10 14 15 13 12 12 11 11 12 13 15 19 24 25 26 27 20 14 16 14 12 15 15 15 17 16 15 18 18 16 14 12 13 15 17 19 21 14 9 12 15
12 8 9 10 9 11 14 15 13 9 10 12 9 9 15 15 13 15 18 19 21 23 18 16 18 17 17 20 19 18 20 21 20 17 16 15 13 13 16 19 21 13 2 1 8 8 7 10 17 20 19 17 15 14 15 15 16 19 21 23 24 25 26 23 19 19 16 13 14 15 16 19 19 18 19 18 17 16 14 15 18 19 18 16 12 12 15 16
11 11 14 12 9 8 9 11 10 8 11 13 9 9 14 15 14 13 13 14 18 21 17 15 19 21 19 19 16 16 19 20 20 20 18 16 15 14 16 21 21 14 8 11 13 8 7 11 15 19 21 22 22 20 18 17 18 21 21 21 23 24 27 26 24 23 21 16 15 16 18 21 21 23 23 19 16 15 16 19 21 21 20 20 18 17 17 17
14 15 16 14 12 12 13 16 15 12 11 10 8 10 13 13 15 14 11 12 15 16 15 16 19 19 20 21 17 14 15 16 17 18 17 17 17 14 13 16 18 17 15 15 13 10 9 9 12 16 17 20 23 23 22 21 19 20 21 21 22 24 26 27 25 26 26 23 21 20 20 20 19 22 24 24 24 21 18 20 22 23 24 23 21 20 19 18
14 12 12 13 13 15 18 18 16 12 10 9 8 11 13 14 15 14 12 10 11 12 12 11 12 13 15 18 18 19 18 15 16 16 16 17 16 14 13 12 13 17 18 15 13 14 11 9 12 14 13 15 20 21 23 24 22 22 23 23 25 25 25 25 25 25 25 24 25 25 22 18 16 18 20 23 29 29 22 20 20 21 22 21 20 20 19 17
17 13 13 12 11 12 14 14 13 11 9 8 9 10 12 15 14 12 10 11 13 15 12 13 15 15 16 17 15 16 15 11 12 14 14 15 13 13 14 13 13 16 17 15 13 13 12 10 11 12 11 13 16 19 22 23 23 24 24 25 26 24 22 21 21 22 22 22 23 23 20 16 14 16 17 17 22 26 24 23 24 23 21 19 18 20 20 18
18 14 13 12 9 10 11 10 11 11 10 9 12 12 13 14 12 10 9 9 14 17 12 12 14 12 12 13 10 13 18 19 19 21 16 11 12 13 12 12 14 14 13 14 14 12 12 10 10 11 11 12 17 20 21 20 18 18 20 23 26 24 23 23 21 22 23 22 19 17 16 15 14 16 19 18 18 20 22 26 29 28 25 24 23 22 23 24
Wind_Direction
320 318 318 318 319 318 317 317 315 314 312 312 311 311 310 309 309 308 308 305 301 300 301 304 306 306 308 314 318 322 322 319 317 307 293 282 273 259 254 257 247 230 242 239 200 194 197 204 205 202 203 200 210 233 225 222 265 272 278 287 284 101 93 109 114 93 108 117 122 140 146 133 134 136 125 142 144 136 149 144 133 127 130 135 135 142 146 147
321 320 320 320 320 319 319 317 315 314 312 311 310 309 308 307 307 305 306 305 302 300 298 300 302 304 307 309 315 319 318 317 311 294 271 258 264 263 255 255 241 221 227 216 196 197 201 204 201 202 204 207 212 218 221 202 235 271 282 292 280 95 72 105 109 100 121 124 124 137 141 137 136 141 152 167 149 144 157 146 144 139 133 133 136 144 149 151
323 322 321 319 320 320 319 317 316 314 313 312 310 310 308 306 305 304 303 302 302 301 299 298 299 302 304 307 313 315 319 317 305 285 250 224 248 277 267 260 237 216 218 209 199 202 205 207 200 202 209 220 214 198 211 175 177 205 101 281 266 99 100 120 108 116 119 125 136 140 140 137 134 146 168 168 146 155 166 152 154 145 142 144 142 148 152 155
323 322 321 319 319 319 318 318 316 315 314 313 311 310 308 307 305 304 302 301 301 299 299 298 298 300 301 307 311 316 320 312 298 213 173 185 292 315 299 275 233 213 209 201 203 206 210 213 202 207 217 231 222 201 211 182 185 192 163 239 206 85 240 129 131 133 121 139 143 142 149 139 137 150 169 166 152 164 171 160 161 153 152 153 148 152 159 161
320 319 319 317 318 318 317 316 314 314 314 313 312 311 309 308 306 305 303 302 301 299 299 297 298 298 300 305 308 317 318 311 102 114 151 232 305 316 306 293 235 206 197 196 207 209 212 214 204 213 225 237 231 213 218 200 195 209 212 246 115 108 262 110 144 138 125 159 148 152 157 133 146 160 164 177 173 171 166 162 164 161 159 158 154 156 161 165
317 316 316 316 315 315 315 313 313 312 312 312 311 310 309 308 306 306 305 304 304 301 300 297 298 296 298 302 305 313 308 300 9 211 262 291 294 302 304 293 221 193 187 198 212 210 212 213 206 215 224 235 240 227 220 205 201 232 235 251 259 213 266 77 154 145 138 171 151 155 148 135 165 164 161 186 172 135 154 156 160 161 161 161 160 159 163 168
317 315 315 315 313 314 313 311 311 311 310 309 308 308 307 306 305 305 305 306 306 303 302 300 299 296 297 299 302 302 279 278 284 249 270 289 278 284 299 288 208 183 185 205 212 209 211 211 210 216 222 228 239 237 232 215 201 228 246 225 232 225 221 237 192 153 155 175 149 156 153 152 180 159 160 186 149 105 142 147 155 158 161 165 164 165 167 170
317 316 315 315 314 313 312 310 310 309 308 308 307 306 305 304 303 304 306 306 306 304 303 302 301 298 297 298 299 292 273 273 277 248 271 271 241 271 300 291 206 177 191 212 211 211 212 212 214 217 227 229 236 236 235 235 207 216 246 233 221 222 219 219 227 178 164 175 158 169 167 157 177 154 161 183 146 130 148 143 153 158 162 169 168 170 170 172
319 317 316 315 314 314 312 311 309 308 308 307 306 305 304 303 302 304 305 305 305 304 304 304 302 299 297 297 291 283 276 269 282 286 271 242 239 267 285 255 205 180 198 215 213 217 215 218 219 218 232 236 238 240 233 240 219 208 231 239 225 226 229 223 226 201 175 185 169 177 177 159 171 153 162 180 148 146 157 147 155 160 165 171 170 173 173 174
321 319 317 317 315 313 312 311 310 309 308 307 305 304 302 301 302 304 304 305 304 302 304 303 302 300 297 295 282 272 270 261 265 265 228 204 236 253 195 198 205 197 206 215 216 219 219 222 224 225 240 245 243 245 237 237 232 206 213 237 235 232 230 225 229 206 188 188 176 184 184 167 174 169 171 171 153 154 160 155 161 163 169 174 173 175 175 177
322 321 319 318 316 314 314 312 310 309 307 307 306 303 301 300 302 303 304 304 302 302 303 302 302 298 293 279 259 258 274 275 260 235 223 213 219 224 201 196 205 208 212 218 218 219 223 226 229 232 238 245 251 254 244 241 249 228 204 226 224 229 231 221 224 209 200 188 178 190 194 177 176 193 186 160 156 163 164 163 166 167 170 176 177 175 177 181
324 322 320 319 318 315 316 314 312 310 308 307 304 303 301 300 302 302 303 303 301 302 301 302 302 295 289 261 251 259 271 270 261 248 239 228 224 223 215 212 213 215 218 221 222 220 224 226 230 236 233 237 243 252 249 234 243 249 233 233 217 219 225 220 220 206 205 183 171 189 202 187 178 207 193 156 160 170 170 169 168 172 171 174 179 176 179 184
326 324 322 320 318 317 318 316 315 312 310 308 305 302 299 300 302 301 302 300 300 300 300 303 300 293 277 255 258 266 268 263 260 250 238 232 235 232 228 228 223 222 223 224 226 222 224 226 228 236 239 240 233 241 275 239 232 239 238 244 229 218 212 211 214 204 200 170 168 191 207 192 186 215 196 156 164 177 174 174 172 176 173 175 180 178 182 186
328 325 323 322 320 320 319 318 316 313 313 310 307 303 301 301 300 299 300 297 298 298 299 302 299 288 249 260 274 269 262 262 252 242 234 230 233 234 232 228 223 222 222 225 230 227 224 224 227 236 239 243 245 244 263 246 228 230 232 233 234 237 208 197 199 197 191 159 174 196 215 208 191 204 191 160 169 181 177 178 177 178 176 178 182 182 185 188
331 328 327 324 322 322 322 320 317 314 313 311 308 306 304 303 301 299 295 292 293 293 297 301 298 272 252 275 281 258 254 253 238 230 221 218 223 228 223 217 217 215 218 221 226 229 225 219 221 230 233 238 249 252 250 237 225 223 228 224 219 235 218 185 179 188 188 160 181 201 219 212 182 184 180 167 174 181 181 182 180 181 181 181 184 187 187 189
334 333 330 328 327 326 326 323 318 316 314 312 309 306 305 305 303 298 293 289 287 286 292 303 304 276 267 284 264 230 234 222 216 200 192 203 210 217 208 203 208 205 212 216 216 222 219 215 218 223 230 229 235 243 245 234 221 213 223 228 214 212 213 185 169 185 188 166 184 205 223 223 170 167 166 170 179 180 185 185 183 186 184 184 187 190 191 190
336 335 332 331 329 329 330 326 322 319 316 315 310 306 306 304 303 300 294 286 281 281 276 261 265 257 257 257 226 230 220 199 189 173 180 192 198 211 195 191 199 196 201 203 205 211 208 209 213 217 226 226 219 222 230 227 215 206 213 230 228 210 202 189 174 186 188 174 186 204 220 228 159 155 160 175 183 183 188 186 186 190 187 186 188 192 194 193
335 334 332 331 329 331 333 328 326 322 320 319 313 310 308 305 304 297 287 283 278 275 265 236 206 241 252 239 240 243 203 182 175 172 186 199 205 216 196 192 194 188 189 190 196 201 198 202 208 212 217 219 217 213 220 223 217 212 205 215 236 222 204 187 178 189 191 183 188 201 215 213 157 153 166 182 187 188 192 190 190 192 191 189 190 195 195 195
334 332 332 330 329 332 333 330 328 325 324 322 317 315 309 302 297 284 272 263 232 227 263 207 187 226 294 236 225 231 183 174 177 182 207 219 212 211 201 200 195 189 191 187 190 196 193 197 208 215 212 209 213 214 217 224 226 225 215 210 223 229 215 192 181 185 192 194 194 200 212 209 179 167 174 184 193 195 197 196 195 193 193 193 195 199 198 198
331 331 331 330 328 330 333 332 330 328 326 326 333 330 317 307 293 276 251 238 232 245 274 248 208 239 276 270 229 214 194 191 200 220 241 222 204 202 200 202 198 196 203 197 186 191 194 201 210 213 213 208 210 217 220 226 233 234 225 218 219 229 225 198 183 177 190 204 202 199 208 214 200 179 178 192 198 199 201 202 200 197 196 197 199 202 201 201
330 330 330 329 328 330 334 332 330 330 327 332 345 342 338 345 324 326 330 275 252 252 264 263 247 248 256 256 248 229 218 219 221 233 240 207 196 199 195 198 203 199 208 209 192 190 197 211 216 212 216 214 210 215 220 226 234 238 234 227 221 227 228 208 185 170 188 208 204 202 208 214 210 192 186 196 201 202 201 201 203 205 202 200 201 204 203 203
330 329 330 329 328 330 334 334 330 327 328 334 338 331 341 357 328 316 320 291 273 266 259 257 255 251 250 248 245 237 235 238 231 226 217 195 195 198 188 194 210 205 203 208 198 191 203 218 217 211 214 218 214 214 220 225 232 238 238 231 227 224 227 228 193 166 178 207 203 206 211 210 210 206 199 196 199 207 207 204 205 207 208 205 202 204 206 204
330 330 330 330 329 330 336 335 329 328 335 338 327 313 305 314 320 319 308 285 282 277 256 245 244 243 244 241 234 226 228 234 231 222 206 193 199 204 196 196 211 213 203 206 205 199 206 215 214 212 212 217 218 215 217 224 228 233 235 228 230 224 220 228 187 160 171 200 213 216 217 214 208 210 210 201 199 206 209 212 210 208 211 212 207 205 206 206
330 329 329 331 329 331 338 336 336 344 338 329 309 285 270 303 324 329 312 279 275 273 249 235 232 235 236 234 220 210 219 227 228 222 204 196 202 206 208 206 210 218 211 207 212 214 218 213 208 212 211 213 220 217 214 220 223 229 233 229 227 223 222 219 168 159 185 204 218 226 225 223 213 212 212 204 204 207 210 214 214 213 212 212 213 210 208 208
330 329 329 331 330 331 342 347 347 344 331 317 301 264 282 314 318 329 319 276 263 260 238 220 217 227 222 209 198 199 214 226 225 223 202 198 203 202 209 212 210 221 217 211 215 221 224 212 202 210 212 211 218 219 214 216 219 225 229 232 234 224 225 225 180 168 205 211 210 219 227 228 215 216 217 209 208 207 207 212 214 215 216 216 216 214 210 209
328 328 328 330 330 331 344 7 321 326 325 309 300 286 305 308 312 328 317 270 265 220 167 182 193 203 197 191 189 195 221 225 217 217 200 198 204 205 207 208 209 224 222 215 218 226 224 215 206 208 211 211 216 220 216 216 221 224 219 224 237 237 232 232 203 187 214 216 207 213 225 237 218 215 220 219 216 208 205 213 213 212 216 220 220 218 213 209
325 328 326 326 331 334 335 331 311 319 332 316 292 297 305 302 317 336 290 263 257 175 137 155 178 181 193 190 180 189 224 193 190 202 199 195 201 207 215 208 204 222 226 220 219 220 217 218 214 208 211 211 213 219 216 216 222 227 218 214 225 236 238 238 224 209 217 215 213 216 225 240 231 220 218 216 218 214 209 209 209 213 217 219 221 224 219 211
322 325 324 320 326 330 323 316 315 313 310 305 290 281 294 305 317 322 265 267 232 143 135 148 163 171 186 179 181 193 157 138 172 190 192 194 196 202 217 219 213 214 219 225 223 211 209 219 218 208 210 214 212 216 213 216 223 225 227 223 218 224 235 243 237 220 218 221 220 218 223 235 237 229 221 214 215 218 213 206 205 214 218 216 216 224 226 216
319 322 322 316 317 324 316 311 313 300 280 283 280 271 294 310 302 277 254 259 228 157 149 145 148 172 182 174 193 211 204 189 198 170 178 192 198 204 218 224 226 220 217 228 233 221 208 217 222 210 209 222 217 213 212 217 224 225 230 236 231 221 223 234 238 226 221 229 233 223 221 232 240 229 222 217 216 217 214 208 210 213 213 214 215 224 230 219
316 319 320 314 315 321 315 310 315 305 281 278 268 263 295 296 269 242 231 231 240 188 143 144 160 177 184 181 199 213 216 221 197 157 177 189 197 210 220 220 230 233 221 226 234 239 224 212 220 219 214 223 221 216 217 220 225 227 229 236 238 231 224 230 235 229 223 227 231 226 223 230 241 230 217 220 227 225 217 214 216 209 204 211 213 219 230 224
315 317 317 314 312 311 304 304 308 288 283 287 266 256 276 263 237 238 227 225 276 189 141 158 181 175 184 194 201 199 207 218 189 171 188 186 190 206 212 211 223 229 224 222 224 235 233 213 211 221 218 217 222 221 219 219 220 224 227 230 234 232 231 237 232 226 229 228 224 223 223 227 235 233 217 218 226 223 216 218 219 207 204 210 209 209 221 226
315 314 313 311 305 297 291 283 262 264 277 288 262 246 248 232 225 235 223 114 254 186 167 186 186 176 189 203 209 193 196 210 194 186 193 188 190 199 203 204 199 205 218 217 209 215 227 226 213 215 216 214 220 222 214 213 214 218 221 224 227 224 221 230 227 224 231 233 225 224 226 229 232 235 230 226 225 216 207 216 221 214 205 201 201 203 210 218
317 315 313 308 300 292 288 281 265 264 273 276 248 236 230 234 230 222 218 216 182 148 181 203 188 186 196 204 214 198 195 203 193 193 199 199 201 198 203 209 201 205 216 210 207 203 215 227 219 213 213 210 215 222 213 205 205 211 214 217 222 220 218 223 224 226 231 230 226 227 233 237 233 232 229 223 225 218 204 210 220 228 217 195 189 195 204 214
319 317 313 309 301 290 285 286 278 269 264 240 230 221 220 234 234 219 221 226 227 195 219 218 194 195 204 210 214 199 201 210 197 196 199 199 209 204 202 209 209 214 222 213 212 208 211 220 211 208 207 203 210 222 222 209 206 211 212 216 224 221 221 225 220 224 233 233 228 225 228 234 231 230 224 216 219 222 212 210 215 227 233 211 186 184 197 213
321 321 318 314 305 289 279 281 283 269 232 214 219 220 221 228 228 228 232 230 237 237 227 225 209 205 210 213 220 214 213 217 202 201 206 205 211 210 202 207 210 211 218 217 210 210 220 226 205 201 205 206 208 215 223 221 215 210 207 218 225 216 221 234 228 228 236 237 232 227 224 229 233 231 219 213 219 220 220 220 218 223 232 227 195 183 194 212
325 326 323 312 291 276 263 270 283 246 216 219 223 224 225 230 228 229 237 233 241 243 230 219 213 216 217 210 220 219 210 213 209 202 209 212 214 216 211 204 204 207 212 215 210 209 221 227 205 197 202 210 209 209 217 225 222 199 205 222 222 213 222 237 237 236 238 238 235 232 229 224 228 224 209 215 222 216 219 222 222 228 230 218 203 194 196 207
329 330 324 304 275 252 230 249 284 228 221 228 232 232 231 236 236 239 253 253 251 252 245 230 210 215 223 213 215 211 197 203 217 211 210 214 214 216 216 208 201 206 211 216 223 218 223 231 207 198 203 207 207 211 217 225 228 212 207 217 215 216 225 232 236 232 233 238 234 234 236 228 223 218 204 221 224 208 215 224 223 230 227 207 208 210 202 207
332 327 316 301 256 217 217 245 275 224 224 233 239 243 245 242 239 242 251 256 261 260 251 243 220 213 224 224 218 211 200 198 212 217 217 216 212 208 212 212 202 202 208 215 224 217 216 234 209 201 209 203 198 209 218 220 225 231 230 215 208 217 220 220 229 228 228 236 232 235 241 236 233 221 199 223 227 206 211 224 223 231 229 204 199 207 206 209
332 319 306 285 169 201 241 264 253 229 231 236 239 242 245 249 250 250 252 254 256 253 247 247 239 226 228 232 229 219 209 205 210 216 216 218 215 202 204 210 203 201 204 208 220 223 209 226 223 202 200 194 189 204 216 212 215 228 238 224 212 220 220 218 226 227 231 238 232 234 239 237 241 230 205 217 226 212 213 222 221 232 237 215 194 198 204 206
325 307 289 194 168 240 276 272 248 236 236 239 245 248 244 247 248 248 251 253 255 251 243 244 244 239 235 234 238 234 221 215 214 215 214 214 217 202 198 205 204 201 201 203 214 226 207 206 226 204 186 188 198 203 211 214 205 212 226 225 216 216 220 225 226 222 228 236 234 233 237 235 237 234 218 214 219 216 216 216 211 220 231 223 203 199 198 202
311 293 268 203 198 257 270 264 247 237 241 242 246 253 254 257 255 247 245 244 247 251 251 251 249 248 245 239 238 238 237 230 217 214 218 214 217 213 200 207 208 200 198 201 208 216 211 200 216 215 190 194 212 209 209 219 218 210 213 221 224 217 216 224 224 220 222 231 236 236 239 237 229 232 225 211 215 223 219 212 202 207 218 221 223 212 189 190
292 272 255 232 269 279 267 263 248 236 243 246 247 251 254 259 261 256 250 244 241 241 244 251 253 250 249 248 243 237 241 243 218 215 226 219 215 210 193 201 210 205 198 204 207 207 213 213 213 224 216 205 212 212 211 218 227 227 217 216 224 226 221 221 221 223 225 229 233 236 243 239 225 230 222 201 214 227 223 216 201 205 215 221 244 237 184 174
282 276 277 279 282 268 251 253 253 243 243 246 251 254 253 254 254 254 253 250 245 239 235 239 243 244 246 248 247 243 241 244 230 223 229 228 218 208 190 199 210 210 199 203 206 198 205 223 214 220 235 223 211 212 215 215 221 231 227 217 218 224 229 230 226 226 227 227 227 229 238 234 227 238 223 192 210 223 222 219 212 220 224 224 242 244 172 161
294 287 281 278 268 244 241 246 248 249 249 246 245 245 246 249 252 252 251 248 246 243 241 240 237 237 240 242 244 245 243 239 232 227 229 233 221 204 195 196 207 215 205 198 203 189 190 219 218 209 223 222 210 207 211 211 211 220 227 222 216 220 228 230 228 230 230 227 228 231 237 229 225 238 232 208 203 210 218 219 218 226 231 233 244 241 164 170
299 286 276 269 239 223 236 248 257 265 264 259 255 248 246 244 241 244 250 253 251 249 249 246 242 238 236 237 238 239 241 241 235 229 230 233 224 209 204 195 199 215 210 220 306 214 196 201 210 212 213 209 208 207 205 204 206 213 223 225 220 220 225 225 222 232 234 228 227 234 239 230 216 221 229 226 209 195 207 218 221 227 224 227 238 222 168 193
296 288 283 276 246 230 235 247 264 273 274 280 275 260 257 252 244 246 248 247 248 252 258 252 244 241 232 231 234 232 233 237 237 235 232 230 223 215 214 209 213 218 207 32 326 246 224 207 205 216 225 220 216 215 211 206 209 212 217 224 227 224 224 222 222 231 233 227 228 237 245 242 232 223 224 225 213 199 205 225 240 248 233 220 213 167 162 188
282 277 279 290 287 266 250 246 259 279 298 305 303 280 274 267 260 258 253 248 242 239 249 258 251 247 235 227 229 231 230 231 233 235 235 235 233 222 217 220 220 211 134 313 235 231 247 228 212 213 223 233 236 227 216 213 220 223 215 216 226 228 224 222 224 230 232 231 231 231 235 240 243 242 234 225 216 208 208 225 242 247 240 233 216 176 173 184
271 272 277 289 298 287 271 267 281 311 313 307 306 301 292 276 266 264 263 275 263 237 232 243 245 248 247 237 230 227 227 226 227 230 231 234 237 230 218 216 214 194 175 219 224 216 233 233 220 214 215 226 239 241 232 224 229 235 226 216 220 227 228 229 229 228 228 234 239 229 224 228 235 241 243 240 233 219 208 221 237 234 228 236 236 213 199 196
274 277 280 288 287 281 283 286 290 295 291 289 284 281 281 276 272 268 267 289 288 264 248 239 237 244 251 249 242 231 225 226 225 224 227 229 231 233 225 210 206 200 200 214 217 211 225 232 226 227 223 221 229 238 241 238 235 236 234 227 222 224 228 233 237 235 231 235 242 240 233 230 230 235 239 242 247 245 222 214 225 230 229 234 237 229 222 218
270 284 290 293 286 281 283 282 280 276 267 263 261 263 267 267 268 270 271 283 297 293 288 285 287 295 291 277 260 238 227 230 232 227 225 224 221 226 231 217 203 203 203 210 211 204 211 225 225 234 242 232 227 231 236 240 241 238 234 231 230 228 226 227 233 237 237 237 238 240 241 238 234 235 235 235 241 247 241 223 217 221 225 229 234 240 240 233
260 273 282 288 285 277 279 280 275 270 263 251 248 252 255 257 261 270 281 290 287 282 299 333 336 327 315 302 277 251 251 266 277 271 252 235 230 232 233 226 219 211 201 204 210 201 201 218 221 225 239 239 234 234 235 237 242 245 242 236 234 234 231 230 229 230 235 238 238 238 240 238 235 237 237 231 234 241 246 242 236 231 228 226 230 243 253 251
272 275 269 270 276 274 273 275 271 267 265 260 257 255 252 257 266 275 280 284 276 272 290 333 335 326 310 306 318 328 326 327 323 312 298 274 270 271 263 248 241 237 218 205 206 203 202 212 215 217 230 234 229 233 238 239 239 243 242 239 238 237 234 234 232 228 230 235 237 237 240 241 238 239 240 232 227 233 240 243 243 242 243 243 237 238 248 252